Location: Eppertshofen
(48.6221°N, 11.2281°E)
Time: 23:09:19
(UTC+00:00)

Daily predictions for brighter satellites

Satellite Brightness Start Highest point End
(mag) Time Altitude Azimuth Time Altitude Azimuth Time Altitude Azimuth
Cosmos-2242 4.4 15:51:15 10° SE 15:54:22 20° E 15:57:31 10° NE
Lacrosse 4 Rocket 2.1 15:51:13 10° NNW 15:55:15 35° NE 15:59:10 10° ESE
Cosmos 2058 Rocket 3.2 15:52:13 10° S 15:56:33 55° E 16:00:52 10° NNE
USA 234 4.4 15:51:27 10° ENE 15:56:51 27° SE 16:02:12 10° S
SL-08 RB Rocket 3.7 15:54:24 10° SSE 15:58:52 89° ENE 16:03:25 10° NNW
Cosmos 2279 Rocket 4.0 15:53:35 10° N 15:59:51 73° E 16:06:04 10° SSE
Cosmos 1269 Rocket 4.2 15:57:04 10° NNW 16:02:23 82° WSW 16:07:40 10° SSE
Cosmos 1606 Rocket 4.4 15:58:20 10° SSW 16:02:42 55° WNW 16:07:04 10° N
Cosmos 1726 Rocket 3.9 15:59:07 10° SSW 16:03:32 71° W 16:07:59 10° N
CZ-2D R/B 3.1 16:00:41 10° SSE 16:04:20 73° ENE 16:08:00 10° N
Cosmos 1812 3.8 16:06:43 10° SE 16:09:37 22° E 16:12:32 10° NE
AQUARIUS 4.5 16:09:08 10° SE 16:13:20 43° ENE 16:17:34 10° N
YAOGAN 11 4.3 16:10:08 10° NNE 16:14:39 59° ESE 16:19:08 10° S
USA 276 2.4 16:13:02 10° SW 16:15:19 37° SSE 16:17:13 13° E
CZ-2C R/B 2.5 16:12:20 10° SSE 16:15:52 76° ENE 16:19:29 10° N
Cosmos 2263 Rocket 2.2 16:11:23 10° SSW 16:16:54 71° ESE 16:22:29 10° NNE
Cosmos 1437 Rocket 3.3 16:13:25 10° NNW 16:17:05 58° W 16:20:47 10° S
Cosmos 1844 Rocket 4.2 16:14:15 10° SE 16:17:38 17° E 16:20:21 12° ENE
Nadezhda 4 Rocket 4.2 16:14:52 10° SSE 16:20:41 46° E 16:26:29 10° NNE
CORIOLIS 4.1 16:15:26 10° SSE 16:20:44 66° ENE 16:26:05 10° N
ERS-2 3.0 16:19:35 10° S 16:22:21 41° WSW 16:25:10 10° NNW
USA 307 2.9 16:20:44 10° WNW 16:24:36 70° SSW 16:28:23 10° SE
Cosmos 2227 Rocket 3.3 16:19:53 10° WSW 16:25:13 42° NW 16:30:35 10° NNE
Meteor 1-20 Rocket 4.3 16:21:54 10° N 16:27:21 52° ENE 16:32:51 10° SSE
Cosmos 44 4.5 16:22:09 10° NW 16:27:22 51° WSW 16:32:20 10° SSE
Cosmos 1140 Rocket 3.5 16:22:50 10° NNW 16:27:59 60° ENE 16:33:03 10° SE
YAOGAN 1 4.2 16:29:59 14° NE 16:29:59 14° NE 16:31:48 10° NNE
SAR-Lupe-2 4.2 16:26:04 10° S 16:29:36 59° WSW 16:33:09 10° NNW
ADEOS 4.5 16:26:45 10° ESE 16:31:00 26° ENE 16:35:16 10° N
Cosmos 1666 2.6 16:30:47 10° NNW 16:34:20 80° W 16:37:51 10° S
Cosmos 1603 3.7 16:32:23 10° NNW 16:38:01 59° ENE 16:43:36 10° SE
DMSP B5D2-2 4.1 16:33:28 10° NNE 16:38:42 88° ESE 16:43:56 10° SSW
Meteor 1-31 Rocket 2.6 16:39:06 10° SSE 16:42:47 90° ENE 16:46:32 10° NNW
CZ-4B R/B 4.5 16:44:59 18° NE 16:44:59 18° NE 16:47:06 10° NNE
USA 306 4.2 16:45:52 10° W 16:47:27 18° SW 16:49:00 10° S
SL-08 R/B 4.4 16:46:50 21° ENE 16:48:01 23° E 16:51:42 10° SE
SL-16 R/B 4.4 16:45:51 10° NW 16:50:37 29° WSW 16:55:23 10° SSW
ATLAS CENTAUR R/B 3.0 16:47:12 10° WNW 16:51:23 72° SW 16:59:37 10° SE
Cosmos 1602 4.2 16:49:31 10° NNW 16:53:12 60° W 16:56:52 10° S
RESURS DK-1 3.4 16:52:36 10° N 16:56:04 25° NE 16:56:12 25° NE
USA 305 3.3 16:52:34 10° WNW 16:56:19 52° SW 17:00:01 10° SE
CZ-4B R/B 3.3 16:53:38 10° SSE 16:58:40 73° ENE 17:03:36 10° NNW
Cosmos 1782 3.0 16:57:40 10° SSE 17:01:23 43° E 17:03:03 27° NE
Cosmos 1812 Rocket 3.4 16:57:26 10° S 17:01:45 73° E 17:06:08 10° NNE
Cosmos 1943 3.5 16:56:21 10° NNW 17:01:58 70° WSW 17:07:34 10° SSE
Helios 1A 2.9 16:58:42 15° NNE 17:02:07 60° ESE 17:06:13 10° S
ATLAS 2AS CENTAUR R/B 2.8 16:57:35 10° NW 17:04:25 52° NE 17:09:08 19° ESE
SMAP 4.1 17:00:59 10° S 17:05:29 49° W 17:10:02 10° NNW
NOAA 6 3.9 17:01:25 10° SSE 17:06:30 67° ENE 17:11:36 10° N
Radarsat Rocket 3.8 17:07:13 10° SSE 17:13:01 76° ENE 17:19:11 10° NNW
Cosmos 407 Rocket 3.5 17:08:09 10° NNW 17:13:20 80° WSW 17:18:26 10° SSE
Cosmos 2297 Rocket 4.5 17:10:45 10° WNW 17:14:09 16° NW 17:17:34 10° N
ISS -0.7 17:17:53 10° WSW 17:19:48 15° SW 17:21:43 10° S
Cosmos 2251 Rocket 3.9 17:15:46 10° NNW 17:21:04 67° WSW 17:26:23 10° S
Cosmos 220 Rocket 3.8 17:20:37 10° NNW 17:24:57 72° ENE 17:27:54 19° SSE
SME Rocket 4.4 17:21:52 10° SE 17:27:36 59° ENE 17:36:29 10° NNW
Cosmos 2056 Rocket 3.8 17:22:31 10° S 17:27:39 47° ESE 17:28:45 41° ENE
Cosmos 1954 Rocket 3.9 17:22:44 10° NNW 17:27:58 61° ENE 17:31:28 21° SE
COSMOS 2455 4.0 17:23:29 10° SSE 17:27:03 23° SE 17:27:03 23° SE
Timation 2 Rocket 4.0 17:22:47 10° S 17:28:33 53° ESE 17:30:41 36° ENE
Cosmos 1844 3.9 17:23:14 10° S 17:28:47 50° ESE 17:30:24 39° ENE
CZ-4 R/B 4.4 17:26:09 10° SSE 17:30:14 81° WSW 17:34:21 10° NNW
Lacrosse 5 2.0 17:25:51 10° SSW 17:30:46 54° SE 17:31:43 46° E
Cosmos-2242 4.1 17:27:17 10° SSW 17:31:26 44° WNW 17:35:36 10° N
COSMO-SKYMED 1 2.4 17:29:30 31° NNE 17:31:35 80° ESE 17:35:56 10° S
Lacrosse 4 Rocket 3.2 17:29:44 10° NW 17:33:38 33° WSW 17:37:25 10° S
Cosmos 1833 Rocket 3.9 17:30:19 10° N 17:33:48 24° NNE 17:33:48 24° NNE
Cosmos 1553 Rocket 3.9 17:33:07 10° N 17:39:24 62° ENE 17:45:32 10° SSE
APEX 4.1 17:37:35 10° SW 17:39:58 33° WNW 17:39:58 33° WNW
USA 234 3.2 17:37:35 36° ENE 17:40:30 81° SE 17:47:03 10° SW
Cosmos 2221 2.7 17:37:39 10° S 17:41:02 52° SSE 17:41:02 52° SSE
Cosmos 2344 3.4 17:35:32 10° SW 17:43:05 89° NW 17:47:04 31° NE
Cosmos 1190 Rocket 4.2 17:40:06 10° NNW 17:45:25 75° WSW 17:50:41 10° SSE
Cosmos 1818 3.6 17:41:28 10° SW 17:46:54 76° NW 17:48:45 42° NNE
Cosmos 2026 Rocket 4.1 17:41:53 10° SSW 17:48:08 79° W 17:54:32 10° N
Cosmos 1371 Rocket 3.8 17:46:39 10° SSW 17:51:51 75° ESE 17:52:32 65° NE
NOAA 15 4.4 17:49:00 10° SSE 17:54:18 80° ENE 17:59:37 10° NNW
CZ-4B R/B 4.5 18:01:43 27° N 18:01:43 27° N 18:04:21 10° N
Cosmos 1844 Rocket 2.6 17:55:11 10° SSW 18:00:45 85° WNW 18:02:02 55° NNE
Cosmos 2263 Rocket 4.0 17:56:49 10° W 18:01:22 25° NW 18:05:03 14° N
Meteor 1-26 Rocket 4.1 17:55:52 10° S 18:01:26 87° W 18:04:18 31° N
Cosmos 1766 Rocket 3.9 17:59:43 10° NNW 18:04:02 63° W 18:08:18 10° S
YAOGAN 1 4.0 18:07:03 30° NNW 18:07:03 30° NNW 18:09:15 10° NNW
Cosmos 1092 Rocket 4.5 17:59:43 10° SSW 18:05:44 58° WNW 18:11:49 10° N
Cosmos 1420 Rocket 4.0 18:02:35 10° SSW 18:07:50 80° WNW 18:08:27 69° N
ADEOS 4.2 18:05:06 10° S 18:10:11 53° W 18:15:19 10° NNW
Cosmos 2082 Rocket 4.3 18:08:18 10° N 18:09:22 13° N 18:09:22 13° N
Cosmos 1624 Rocket 4.0 18:10:27 10° SSW 18:15:39 76° WNW 18:15:39 76° WNW
Cosmos 1417 Rocket 4.4 18:17:30 10° N 18:23:51 86° E 18:24:07 83° SE
SL-08 R/B 4.1 18:25:44 45° WNW 18:25:59 46° WNW 18:30:23 10° SW
BREEZE-M DEB 4.5 18:30:09 10° WSW 18:49:10 78° S 18:49:10 78° S
ATLAS 2AS CENTAUR R/B 3.5 18:48:49 10° NW 18:55:15 45° WSW 18:56:38 40° SSW
COSMOS 2455 4.5 19:07:37 10° SW 19:10:14 27° SW 19:10:14 27° SW
Lacrosse 5 4.0 19:08:57 10° W 19:10:56 23° W 19:10:56 23° W
USA 234 4.2 19:24:56 43° WNW 19:24:56 43° WNW 19:29:37 10° W
